CCA715 ZWWW-ZBAA

Flight info

Callsign CCA715
Flight time 3h 4m
Altitude 41100
Route VARMI4L VARMI W190 ADPET W188 LIKMI W270 DKO W69 GUVBA GUVBA6J
Aircraft B789/H-SDE1E2E3FGHIJ2J3J4J5M1RWXY/LB1D1

Departure

Time 2026-04-23 11:33
Airport Ürümqi Tianshan International Airport (ZWWW)

Arrival

Time 2026-04-23 14:37
Airport Beijing Capital International Airport (ZBAA)
Time Latitude Longitude Altitude Speed Heading
2026-04-23 11:14 43.91945 87.47239 2140 ft 0 kts 162°
2026-04-23 11:24 43.91958 87.47233 2139 ft 2 kts 162°
2026-04-23 11:24 43.91973 87.47226 2140 ft 2 kts 162°
2026-04-23 11:25 43.91989 87.47219 2138 ft 2 kts 162°
2026-04-23 11:25 43.92005 87.47215 2139 ft 2 kts 181°
2026-04-23 11:25 43.92020 87.47222 2140 ft 2 kts 216°
2026-04-23 11:25 43.92031 87.47238 2139 ft 2 kts 247°
2026-04-23 11:26 43.92033 87.47251 2139 ft 0 kts 255°
2026-04-23 11:27 43.92029 87.47233 2140 ft 6 kts 254°
2026-04-23 11:27 43.92014 87.47157 2139 ft 9 kts 253°
2026-04-23 11:28 43.92003 87.47061 2141 ft 11 kts 280°
2026-04-23 11:28 43.92063 87.46987 2141 ft 14 kts 338°
2026-04-23 11:28 43.92134 87.46913 2141 ft 12 kts 286°
2026-04-23 11:28 43.92122 87.46806 2141 ft 12 kts 254°
2026-04-23 11:29 43.92094 87.46671 2140 ft 17 kts 254°
2026-04-23 11:29 43.92056 87.46492 2141 ft 22 kts 253°
2026-04-23 11:29 43.92012 87.46285 2141 ft 22 kts 253°
2026-04-23 11:29 43.91968 87.46078 2141 ft 22 kts 253°
2026-04-23 11:30 43.91924 87.45871 2141 ft 22 kts 253°
2026-04-23 11:30 43.91880 87.45663 2141 ft 22 kts 253°
2026-04-23 11:30 43.91836 87.45461 2141 ft 22 kts 253°
2026-04-23 11:30 43.91799 87.45285 2139 ft 13 kts 254°
2026-04-23 11:31 43.91827 87.45185 2142 ft 11 kts 321°
2026-04-23 11:31 43.91897 87.45156 2142 ft 11 kts
2026-04-23 11:31 43.91956 87.45229 2141 ft 13 kts 66°
2026-04-23 11:31 43.91986 87.45368 2141 ft 18 kts 73°
2026-04-23 11:32 43.92050 87.45666 2141 ft 57 kts 73°
2026-04-23 11:32 43.92225 87.46488 2143 ft 120 kts 73°
2026-04-23 11:32 43.92511 87.47844 2156 ft 169 kts 72°
2026-04-23 11:32 43.92885 87.49521 2474 ft 198 kts 68°
2026-04-23 11:33 43.93439 87.51448 2863 ft 233 kts 67°
2026-04-23 11:33 43.94018 87.53669 3283 ft 264 kts 70°
2026-04-23 11:33 43.94605 87.56186 3750 ft 270 kts 71°
2026-04-23 11:33 43.95153 87.58504 4202 ft 249 kts 68°
2026-04-23 11:34 43.96125 87.60451 4620 ft 248 kts 41°
2026-04-23 11:34 43.97601 87.61601 5729 ft 242 kts 18°
2026-04-23 11:34 43.99292 87.61794 6628 ft 249 kts 350°
2026-04-23 11:34 44.01016 87.61309 7544 ft 254 kts 347°
2026-04-23 11:35 44.02744 87.60727 8506 ft 258 kts 345°
2026-04-23 11:35 44.04504 87.60127 9433 ft 263 kts 345°
2026-04-23 11:35 44.06294 87.59544 10325 ft 266 kts 345°
2026-04-23 11:35 44.08101 87.58962 11221 ft 267 kts 344°
2026-04-23 11:36 44.09923 87.58366 12096 ft 270 kts 344°
2026-04-23 11:36 44.11798 87.58039 12913 ft 277 kts
2026-04-23 11:36 44.13717 87.58684 13315 ft 302 kts 14°
2026-04-23 11:36 44.15792 87.59713 13503 ft 331 kts 18°
2026-04-23 11:37 44.18028 87.60904 13670 ft 357 kts 17°
2026-04-23 11:37 44.20453 87.62108 13748 ft 383 kts 16°
2026-04-23 11:37 44.23009 87.63328 14335 ft 389 kts 16°
2026-04-23 11:37 44.25574 87.64586 15054 ft 393 kts 17°
2026-04-23 11:38 44.28169 87.65881 15722 ft 398 kts 17°
2026-04-23 11:38 44.30800 87.67184 16379 ft 402 kts 17°
2026-04-23 11:38 44.33375 87.68781 16969 ft 410 kts 30°
2026-04-23 11:38 44.35639 87.71259 17611 ft 417 kts 39°
2026-04-23 11:39 44.37808 87.73990 18218 ft 421 kts 40°
2026-04-23 11:39 44.39972 87.76778 18730 ft 425 kts 40°
2026-04-23 11:39 44.42161 87.79574 19251 ft 428 kts 39°
2026-04-23 11:39 44.44384 87.82382 19768 ft 432 kts 39°
2026-04-23 11:40 44.46620 87.85215 20283 ft 436 kts 39°
2026-04-23 11:40 44.48869 87.88089 20766 ft 439 kts 39°
2026-04-23 11:40 44.51137 87.90986 21253 ft 443 kts 39°
2026-04-23 11:40 44.53313 87.94065 21669 ft 450 kts 49°
2026-04-23 11:41 44.55018 87.97779 22114 ft 457 kts 61°
2026-04-23 11:41 44.56143 88.01981 22546 ft 465 kts 74°
2026-04-23 11:41 44.56603 88.06423 22963 ft 470 kts 88°
2026-04-23 11:41 44.56390 88.11018 23358 ft 474 kts 96°
2026-04-23 11:42 44.55987 88.15628 23696 ft 478 kts 97°
2026-04-23 11:42 44.55551 88.20256 24054 ft 480 kts 97°
2026-04-23 11:42 44.55115 88.24907 24402 ft 482 kts 96°
2026-04-23 11:42 44.54708 88.29587 24730 ft 485 kts 96°
2026-04-23 11:43 44.54300 88.34287 25044 ft 487 kts 96°
2026-04-23 11:43 44.53869 88.39018 25383 ft 489 kts 97°
2026-04-23 11:43 44.53430 88.43757 25686 ft 492 kts 97°
2026-04-23 11:43 44.52996 88.48525 26001 ft 494 kts 96°
2026-04-23 11:44 44.52565 88.53316 26323 ft 497 kts 96°
2026-04-23 11:44 44.52145 88.58132 26638 ft 499 kts 96°
2026-04-23 11:44 44.51730 88.62969 26955 ft 502 kts 96°
2026-04-23 11:44 44.51306 88.67786 27263 ft 505 kts 96°
2026-04-23 11:45 44.50861 88.72741 27582 ft 507 kts 96°
2026-04-23 11:45 44.50421 88.77660 27894 ft 510 kts 96°
2026-04-23 11:45 44.49986 88.82547 28197 ft 513 kts 96°
2026-04-23 11:45 44.49541 88.87512 28506 ft 516 kts 96°
2026-04-23 11:46 44.49088 88.92508 28805 ft 519 kts 96°
2026-04-23 11:46 44.48629 88.97535 29126 ft 522 kts 96°
2026-04-23 11:46 44.48168 89.02596 29438 ft 525 kts 96°
2026-04-23 11:46 44.47701 89.07686 29731 ft 527 kts 96°
2026-04-23 11:47 44.47223 89.12803 30024 ft 530 kts 97°
2026-04-23 11:47 44.46734 89.17932 30318 ft 532 kts 97°
2026-04-23 11:47 44.46244 89.23068 30615 ft 534 kts 97°
2026-04-23 11:47 44.45754 89.28242 30904 ft 535 kts 97°
2026-04-23 11:48 44.45267 89.33343 31192 ft 537 kts 97°
2026-04-23 11:48 44.44766 89.38539 31470 ft 539 kts 97°
2026-04-23 11:48 44.44260 89.43753 31869 ft 538 kts 97°
2026-04-23 11:48 44.43757 89.48934 32301 ft 537 kts 97°
2026-04-23 11:49 44.43252 89.54109 32722 ft 536 kts 97°
2026-04-23 11:49 44.42746 89.59269 33147 ft 536 kts 97°
2026-04-23 11:49 44.42236 89.64430 33565 ft 535 kts 97°
2026-04-23 11:49 44.41660 89.69567 33937 ft 535 kts 103°
2026-04-23 11:50 44.40638 89.74574 34183 ft 536 kts 107°
2026-04-23 11:50 44.39549 89.79568 34490 ft 537 kts 107°
2026-04-23 11:50 44.38452 89.84564 34804 ft 537 kts 107°
2026-04-23 11:50 44.37374 89.89554 35105 ft 538 kts 106°
2026-04-23 11:51 44.36292 89.94572 35408 ft 538 kts 106°
2026-04-23 11:51 44.35214 89.99511 35693 ft 539 kts 107°
2026-04-23 11:51 44.34113 90.04522 35993 ft 539 kts 106°
2026-04-23 11:51 44.33014 90.09535 36289 ft 539 kts 106°
2026-04-23 11:52 44.31917 90.14548 36578 ft 540 kts 106°
2026-04-23 11:52 44.30815 90.19561 36861 ft 540 kts 106°
2026-04-23 11:52 44.29705 90.24584 37148 ft 541 kts 106°
2026-04-23 11:52 44.28594 90.29599 37428 ft 541 kts 106°
2026-04-23 11:53 44.27482 90.34623 37715 ft 541 kts 106°
2026-04-23 11:53 44.26367 90.39645 38003 ft 542 kts 106°
2026-04-23 11:53 44.25246 90.44676 38270 ft 542 kts 105°
2026-04-23 11:53 44.24124 90.49697 38539 ft 542 kts 105°
2026-04-23 11:54 44.23002 90.54715 38773 ft 542 kts 105°
2026-04-23 11:54 44.21891 90.59672 39008 ft 542 kts 105°
2026-04-23 11:54 44.20764 90.64683 39229 ft 541 kts 105°
2026-04-23 11:54 44.19636 90.69690 39456 ft 541 kts 105°
2026-04-23 11:55 44.18508 90.74683 39680 ft 541 kts 105°
2026-04-23 11:55 44.17373 90.79696 39914 ft 541 kts 105°
2026-04-23 11:55 44.16239 90.84696 40139 ft 541 kts 105°
2026-04-23 11:55 44.15105 90.89680 40358 ft 540 kts 105°
2026-04-23 11:56 44.13968 90.94671 40592 ft 540 kts 105°
2026-04-23 11:56 44.12831 90.99645 40876 ft 538 kts 105°
2026-04-23 11:56 44.11694 91.04612 40965 ft 541 kts 105°
2026-04-23 11:57 44.09412 91.14555 40983 ft 537 kts 105°
2026-04-23 11:57 44.07139 91.24414 40977 ft 534 kts 105°
2026-04-23 11:58 44.04861 91.34249 40986 ft 534 kts 105°
2026-04-23 11:58 44.02590 91.44012 40994 ft 535 kts 106°
2026-04-23 11:59 44.00265 91.53842 40994 ft 535 kts 106°
2026-04-23 11:59 43.97937 91.63671 41009 ft 536 kts 106°
2026-04-23 12:00 43.95596 91.73503 41016 ft 536 kts 106°
2026-04-23 12:00 43.93243 91.83342 41023 ft 537 kts 106°
2026-04-23 12:01 43.90883 91.93173 41035 ft 537 kts 106°
2026-04-23 12:01 43.88507 92.03019 41043 ft 538 kts 106°
2026-04-23 12:02 43.86128 92.12844 41047 ft 538 kts 106°
2026-04-23 12:02 43.83753 92.22603 41053 ft 538 kts 106°
2026-04-23 12:03 43.81354 92.32422 41056 ft 538 kts 106°
2026-04-23 12:03 43.78939 92.42265 41055 ft 539 kts 106°
2026-04-23 12:04 43.76517 92.52091 41055 ft 540 kts 106°
2026-04-23 12:04 43.74088 92.61903 41056 ft 539 kts 106°
2026-04-23 12:05 43.71647 92.71726 41054 ft 540 kts 106°
2026-04-23 12:05 43.69197 92.81537 41058 ft 541 kts 106°
2026-04-23 12:06 43.67152 92.89700 41061 ft 540 kts 106°
2026-04-23 12:06 43.63177 93.06047 41068 ft 540 kts 106°
2026-04-23 12:07 43.61155 93.14217 41074 ft 539 kts 105°
2026-04-23 12:07 43.58840 93.24046 41079 ft 538 kts 105°
2026-04-23 12:08 43.56458 93.33826 41076 ft 538 kts 105°
2026-04-23 12:08 43.54096 93.43628 41079 ft 538 kts 105°
2026-04-23 12:09 43.51712 93.53407 41079 ft 538 kts 105°
2026-04-23 12:09 43.49322 93.63201 41081 ft 539 kts 105°
2026-04-23 12:10 43.46939 93.72915 41075 ft 539 kts 105°
2026-04-23 12:10 43.44532 93.82684 41071 ft 538 kts 105°
2026-04-23 12:11 43.42121 93.92434 41083 ft 538 kts 105°
2026-04-23 12:11 43.39700 94.02177 41086 ft 538 kts 105°
2026-04-23 12:12 43.37270 94.11921 41088 ft 539 kts 105°
2026-04-23 12:12 43.34829 94.21661 41090 ft 539 kts 105°
2026-04-23 12:13 43.32378 94.31404 41084 ft 540 kts 105°
2026-04-23 12:13 43.29916 94.41149 41090 ft 540 kts 105°
2026-04-23 12:14 43.27460 94.50832 41083 ft 540 kts 105°
2026-04-23 12:14 43.24980 94.60567 41082 ft 541 kts 105°
2026-04-23 12:15 43.22489 94.70306 41069 ft 541 kts 105°
2026-04-23 12:15 43.19988 94.80041 41061 ft 541 kts 105°
2026-04-23 12:16 43.17483 94.89758 41050 ft 541 kts 105°
2026-04-23 12:16 43.14967 94.99470 41029 ft 541 kts 106°
2026-04-23 12:17 43.13432 95.04176 41056 ft 545 kts 118°
2026-04-23 12:17 43.11281 95.08464 41050 ft 548 kts 130°
2026-04-23 12:17 43.08594 95.12176 41050 ft 549 kts 142°
2026-04-23 12:17 43.05554 95.15209 41035 ft 548 kts 146°
2026-04-23 12:18 42.99247 95.21085 41020 ft 549 kts 147°
2026-04-23 12:18 42.92922 95.26957 41019 ft 550 kts 146°
2026-04-23 12:19 42.86595 95.32832 41016 ft 550 kts 147°
2026-04-23 12:19 42.80254 95.38688 41016 ft 549 kts 147°
2026-04-23 12:20 42.73934 95.44525 41011 ft 549 kts 147°
2026-04-23 12:20 42.67599 95.50350 41006 ft 550 kts 147°
2026-04-23 12:21 42.61264 95.56167 41008 ft 550 kts 147°
2026-04-23 12:21 42.54952 95.61944 41011 ft 550 kts 147°
2026-04-23 12:22 42.48611 95.67737 41012 ft 549 kts 147°
2026-04-23 12:22 42.45554 95.70831 41030 ft 548 kts 136°
2026-04-23 12:22 42.42960 95.74598 41037 ft 547 kts 124°
2026-04-23 12:23 42.40903 95.78919 41045 ft 544 kts 112°
2026-04-23 12:23 42.39456 95.83606 41051 ft 537 kts 101°
2026-04-23 12:23 42.38642 95.88500 41055 ft 529 kts 90°
2026-04-23 12:23 42.38400 95.93424 41043 ft 523 kts 86°
2026-04-23 12:24 42.38117 96.03254 41033 ft 523 kts 85°
2026-04-23 12:24 42.37850 96.13095 41038 ft 524 kts 86°
2026-04-23 12:25 42.37556 96.22875 41043 ft 523 kts 86°
2026-04-23 12:25 42.37267 96.32695 41041 ft 523 kts 86°
2026-04-23 12:26 42.36961 96.42517 41045 ft 523 kts 86°
2026-04-23 12:26 42.36651 96.52345 41040 ft 522 kts 86°
2026-04-23 12:27 42.36330 96.62152 41041 ft 521 kts 86°
2026-04-23 12:27 42.36004 96.71944 41042 ft 521 kts 86°
2026-04-23 12:28 42.35667 96.81759 41032 ft 523 kts 86°
2026-04-23 12:28 42.35324 96.91518 41036 ft 522 kts 86°
2026-04-23 12:29 42.34971 97.01325 41040 ft 522 kts 86°
2026-04-23 12:29 42.34609 97.11140 41035 ft 521 kts 86°
2026-04-23 12:30 42.34241 97.20921 41021 ft 521 kts 87°
2026-04-23 12:30 42.33864 97.30704 41026 ft 521 kts 87°
2026-04-23 12:31 42.33478 97.40497 41019 ft 522 kts 87°
2026-04-23 12:31 42.33085 97.50243 41016 ft 522 kts 87°
2026-04-23 12:32 42.32683 97.60023 41012 ft 521 kts 87°
2026-04-23 12:32 42.32272 97.69807 41012 ft 520 kts 87°
2026-04-23 12:33 42.31854 97.79579 41010 ft 520 kts 88°
2026-04-23 12:33 42.31428 97.89338 41008 ft 520 kts 88°
2026-04-23 12:34 42.30996 97.99034 41001 ft 520 kts 88°
2026-04-23 12:34 42.30553 98.08798 41005 ft 520 kts 88°
2026-04-23 12:35 42.30102 98.18548 40999 ft 521 kts 88°
2026-04-23 12:35 42.29642 98.28320 40997 ft 522 kts 88°
2026-04-23 12:36 42.29162 98.38097 40995 ft 522 kts 89°
2026-04-23 12:36 42.28650 98.47894 40994 ft 522 kts 89°
2026-04-23 12:37 42.28149 98.57610 40987 ft 522 kts 89°
2026-04-23 12:37 42.27628 98.67382 40987 ft 521 kts 89°
2026-04-23 12:38 42.27105 98.77131 40983 ft 520 kts 89°
2026-04-23 12:38 42.26571 98.86875 40982 ft 520 kts 89°
2026-04-23 12:39 42.26030 98.96620 40978 ft 520 kts 89°
2026-04-23 12:39 42.25481 99.06360 40972 ft 520 kts 90°
2026-04-23 12:40 42.24922 99.16107 40967 ft 520 kts 90°
2026-04-23 12:40 42.24357 99.25840 40962 ft 521 kts 90°
2026-04-23 12:41 42.23785 99.35525 40968 ft 521 kts 90°
2026-04-23 12:41 42.23201 99.45297 40952 ft 522 kts 90°
2026-04-23 12:42 42.22606 99.55095 40960 ft 522 kts 90°
2026-04-23 12:42 42.22009 99.64792 40954 ft 522 kts 90°
2026-04-23 12:43 42.21399 99.74563 40951 ft 522 kts 90°
2026-04-23 12:43 42.20781 99.84329 40954 ft 521 kts 90°
2026-04-23 12:44 42.20157 99.94063 40947 ft 521 kts 90°
2026-04-23 12:44 42.19525 100.03793 40947 ft 521 kts 91°
2026-04-23 12:45 42.18884 100.13523 40942 ft 520 kts 91°
2026-04-23 12:45 42.18240 100.23175 40941 ft 520 kts 91°
2026-04-23 12:46 42.17584 100.32885 40937 ft 519 kts 91°
2026-04-23 12:46 42.16921 100.42578 40936 ft 519 kts 91°
2026-04-23 12:47 42.16249 100.52281 40933 ft 519 kts 91°
2026-04-23 12:47 42.15569 100.61972 40934 ft 519 kts 91°
2026-04-23 12:48 42.14886 100.71600 40932 ft 519 kts 91°
2026-04-23 12:48 42.14190 100.81290 40930 ft 520 kts 91°
2026-04-23 12:49 42.13486 100.90974 40928 ft 519 kts 91°
2026-04-23 12:49 42.12774 101.00652 40927 ft 519 kts 92°
2026-04-23 12:50 42.12156 101.05458 40953 ft 523 kts 104°
2026-04-23 12:50 42.11001 101.10132 40923 ft 526 kts 106°
2026-04-23 12:50 42.08553 101.19425 40919 ft 526 kts 107°
2026-04-23 12:51 42.06126 101.28710 40919 ft 525 kts 107°
2026-04-23 12:51 42.03695 101.37924 40917 ft 526 kts 107°
2026-04-23 12:52 42.01246 101.47188 40919 ft 525 kts 107°
2026-04-23 12:52 41.98789 101.56444 40917 ft 525 kts 107°
2026-04-23 12:53 41.96321 101.65705 40917 ft 525 kts 107°
2026-04-23 12:53 41.93853 101.74935 40923 ft 525 kts 107°
2026-04-23 12:54 41.91392 101.84101 40923 ft 525 kts 107°
2026-04-23 12:54 41.88909 101.93314 40923 ft 525 kts 107°
2026-04-23 12:55 41.86418 102.02523 40925 ft 524 kts 107°
2026-04-23 12:55 41.83922 102.11719 40927 ft 525 kts 107°
2026-04-23 12:56 41.81843 102.19349 40927 ft 524 kts 108°
2026-04-23 12:56 41.79331 102.28538 40936 ft 524 kts 108°
2026-04-23 12:57 41.76817 102.37701 40936 ft 523 kts 108°
2026-04-23 12:57 41.74295 102.46862 40933 ft 524 kts 108°
2026-04-23 12:58 41.71767 102.56010 40941 ft 524 kts 108°
2026-04-23 12:58 41.69242 102.65113 40939 ft 525 kts 108°
2026-04-23 12:59 41.66689 102.74279 40935 ft 525 kts 108°
2026-04-23 12:59 41.64136 102.83426 40938 ft 524 kts 108°
2026-04-23 13:00 41.61574 102.92566 40928 ft 525 kts 108°
2026-04-23 13:00 41.59004 103.01705 40927 ft 525 kts 108°
2026-04-23 13:01 41.56442 103.10771 40933 ft 524 kts 108°
2026-04-23 13:01 41.53864 103.19868 40927 ft 523 kts 109°
2026-04-23 13:02 41.51282 103.28941 40929 ft 522 kts 109°
2026-04-23 13:02 41.48694 103.38004 40928 ft 523 kts 109°
2026-04-23 13:03 41.46097 103.47070 40914 ft 523 kts 109°
2026-04-23 13:03 41.43495 103.56116 40916 ft 522 kts 109°
2026-04-23 13:04 41.40891 103.65141 40916 ft 522 kts 109°
2026-04-23 13:04 41.38294 103.74108 40918 ft 522 kts 109°
2026-04-23 13:05 41.35670 103.83142 40916 ft 522 kts 109°
2026-04-23 13:05 41.33046 103.92137 40917 ft 521 kts 109°
2026-04-23 13:06 41.29097 104.05622 40913 ft 521 kts 110°
2026-04-23 13:07 41.26455 104.14604 40916 ft 521 kts 110°
2026-04-23 13:07 41.23807 104.23576 40918 ft 521 kts 110°
2026-04-23 13:08 41.21151 104.32542 40918 ft 521 kts 110°
2026-04-23 13:08 41.18508 104.41436 40922 ft 521 kts 110°
2026-04-23 13:09 41.15842 104.50379 40918 ft 520 kts 110°
2026-04-23 13:09 41.13173 104.59296 40916 ft 519 kts 110°
2026-04-23 13:10 41.10497 104.68210 40922 ft 520 kts 110°
2026-04-23 13:10 41.07584 104.76993 40918 ft 521 kts 112°
2026-04-23 13:11 41.04661 104.85801 40926 ft 521 kts 113°
2026-04-23 13:11 41.01671 104.94553 40925 ft 521 kts 113°
2026-04-23 13:12 40.98717 105.03313 40925 ft 521 kts 113°
2026-04-23 13:12 40.95750 105.12002 40931 ft 521 kts 114°
2026-04-23 13:13 40.92767 105.20754 40926 ft 521 kts 114°
2026-04-23 13:13 40.89774 105.29484 40926 ft 520 kts 114°
2026-04-23 13:14 40.86783 105.38196 40927 ft 520 kts 114°
2026-04-23 13:14 40.83804 105.46839 40932 ft 519 kts 114°
2026-04-23 13:15 40.80810 105.55503 40932 ft 518 kts 114°
2026-04-23 13:15 40.77809 105.64159 40934 ft 519 kts 114°
2026-04-23 13:16 40.74796 105.72821 40933 ft 519 kts 114°
2026-04-23 13:16 40.71778 105.81472 40941 ft 518 kts 114°
2026-04-23 13:17 40.68779 105.90046 40933 ft 517 kts 115°
2026-04-23 13:17 40.65736 105.98716 40933 ft 518 kts 115°
2026-04-23 13:18 40.62725 106.07270 40932 ft 518 kts 115°
2026-04-23 13:18 40.59688 106.15871 40927 ft 517 kts 115°
2026-04-23 13:19 40.56649 106.24450 40927 ft 517 kts 115°
2026-04-23 13:19 40.53603 106.33027 40922 ft 517 kts 115°
2026-04-23 13:20 40.50550 106.41596 40915 ft 518 kts 115°
2026-04-23 13:20 40.47510 106.50103 40911 ft 517 kts 115°
2026-04-23 13:21 40.44466 106.58597 40895 ft 508 kts 115°
2026-04-23 13:21 40.42962 106.62785 40716 ft 509 kts 115°
2026-04-23 13:21 40.41444 106.67004 40430 ft 513 kts 116°
2026-04-23 13:21 40.39920 106.71235 40073 ft 513 kts 116°
2026-04-23 13:22 40.38393 106.75469 39720 ft 510 kts 116°
2026-04-23 13:22 40.36878 106.79664 39372 ft 507 kts 116°
2026-04-23 13:22 40.35368 106.83838 39040 ft 505 kts 116°
2026-04-23 13:22 40.33867 106.87981 38709 ft 503 kts 116°
2026-04-23 13:23 40.32466 106.92174 38383 ft 502 kts 107°
2026-04-23 13:23 40.31673 106.96622 38054 ft 503 kts 96°
2026-04-23 13:23 40.31547 107.01139 37739 ft 503 kts 84°
2026-04-23 13:23 40.32005 107.05669 37411 ft 503 kts 80°
2026-04-23 13:24 40.32560 107.10216 37032 ft 504 kts 80°
2026-04-23 13:24 40.33134 107.14735 36667 ft 503 kts 80°
2026-04-23 13:24 40.33704 107.19258 36294 ft 502 kts 81°
2026-04-23 13:24 40.34257 107.23774 35933 ft 502 kts 81°
2026-04-23 13:25 40.34807 107.28296 35569 ft 502 kts 81°
2026-04-23 13:25 40.35365 107.32824 35207 ft 502 kts 81°
2026-04-23 13:25 40.35920 107.37328 34862 ft 501 kts 81°
2026-04-23 13:25 40.36471 107.41851 34520 ft 501 kts 82°
2026-04-23 13:26 40.37017 107.46367 34160 ft 501 kts 82°
2026-04-23 13:26 40.37563 107.50878 33815 ft 501 kts 82°
2026-04-23 13:26 40.38110 107.55400 33419 ft 501 kts 82°
2026-04-23 13:26 40.38654 107.59929 33028 ft 503 kts 82°
2026-04-23 13:27 40.39196 107.64448 32923 ft 498 kts 82°
2026-04-23 13:27 40.39718 107.68811 32925 ft 482 kts 82°
2026-04-23 13:27 40.40228 107.73086 32902 ft 466 kts 82°
2026-04-23 13:27 40.40720 107.77234 32907 ft 455 kts 82°
2026-04-23 13:28 40.41205 107.81343 32904 ft 456 kts 82°
2026-04-23 13:28 40.42182 107.89640 32899 ft 462 kts 82°
2026-04-23 13:29 40.43158 107.97975 32903 ft 462 kts 82°
2026-04-23 13:29 40.44124 108.06317 32908 ft 462 kts 82°
2026-04-23 13:30 40.45086 108.14665 32907 ft 462 kts 82°
2026-04-23 13:30 40.46036 108.22966 32906 ft 462 kts 82°
2026-04-23 13:31 40.46985 108.31313 32906 ft 462 kts 82°
2026-04-23 13:31 40.47930 108.39672 32903 ft 462 kts 82°
2026-04-23 13:32 40.48868 108.48039 32903 ft 463 kts 82°
2026-04-23 13:32 40.49796 108.56358 32908 ft 463 kts 82°
2026-04-23 13:33 40.50723 108.64736 32911 ft 463 kts 82°
2026-04-23 13:33 40.51644 108.73117 32907 ft 463 kts 82°
2026-04-23 13:34 40.52559 108.81489 32910 ft 463 kts 83°
2026-04-23 13:34 40.53464 108.89836 32913 ft 463 kts 83°
2026-04-23 13:35 40.54368 108.98227 32912 ft 463 kts 83°
2026-04-23 13:35 40.55263 109.06599 32919 ft 463 kts 83°
2026-04-23 13:36 40.56155 109.14999 32919 ft 463 kts 83°
2026-04-23 13:36 40.57039 109.23385 32923 ft 463 kts 83°
2026-04-23 13:37 40.57912 109.31723 32921 ft 462 kts 83°
2026-04-23 13:37 40.58784 109.40111 32928 ft 462 kts 83°
2026-04-23 13:38 40.59648 109.48487 32927 ft 462 kts 83°
2026-04-23 13:38 40.60508 109.56881 32927 ft 462 kts 83°
2026-04-23 13:39 40.61361 109.65269 32931 ft 462 kts 83°
2026-04-23 13:39 40.62203 109.73604 32930 ft 462 kts 83°
2026-04-23 13:40 40.63043 109.81994 32938 ft 462 kts 83°
2026-04-23 13:40 40.63878 109.90386 32938 ft 462 kts 83°
2026-04-23 13:41 40.64656 109.98782 32947 ft 460 kts 90°
2026-04-23 13:41 40.64628 110.07217 32956 ft 461 kts 91°
2026-04-23 13:42 40.64591 110.15613 32960 ft 461 kts 91°
2026-04-23 13:42 40.64542 110.24066 32958 ft 460 kts 91°
2026-04-23 13:43 40.64498 110.31084 32953 ft 460 kts 91°
2026-04-23 13:43 40.64440 110.39514 32967 ft 460 kts 91°
2026-04-23 13:44 40.64375 110.47924 32957 ft 460 kts 91°
2026-04-23 13:44 40.64307 110.56338 32961 ft 459 kts 91°
2026-04-23 13:45 40.64232 110.64742 32967 ft 459 kts 91°
2026-04-23 13:45 40.64151 110.73131 32964 ft 458 kts 91°
2026-04-23 13:46 40.64065 110.81468 32963 ft 458 kts 91°
2026-04-23 13:46 40.63972 110.89856 32963 ft 458 kts 91°
2026-04-23 13:47 40.63873 110.98239 32962 ft 458 kts 91°
2026-04-23 13:47 40.63768 111.06633 32964 ft 457 kts 91°
2026-04-23 13:48 40.63658 111.15002 32965 ft 457 kts 91°
2026-04-23 13:48 40.63541 111.23380 32967 ft 458 kts 91°
2026-04-23 13:49 40.63419 111.31712 32970 ft 458 kts 91°
2026-04-23 13:49 40.63290 111.40104 32973 ft 457 kts 91°
2026-04-23 13:50 40.63156 111.48472 32977 ft 457 kts 91°
2026-04-23 13:50 40.63015 111.56854 32982 ft 458 kts 91°
2026-04-23 13:51 40.62869 111.65178 32986 ft 457 kts 91°
2026-04-23 13:51 40.62716 111.73547 32987 ft 457 kts 91°
2026-04-23 13:52 40.62557 111.81917 32983 ft 457 kts 91°
2026-04-23 13:52 40.62393 111.90277 32987 ft 457 kts 91°
2026-04-23 13:53 40.62252 111.98644 32994 ft 457 kts 92°
2026-04-23 13:53 40.62039 112.06996 32997 ft 456 kts 91°
2026-04-23 13:54 40.61870 112.15348 32998 ft 457 kts 91°
2026-04-23 13:54 40.61671 112.23705 33005 ft 456 kts 91°
2026-04-23 13:55 40.61477 112.32051 33001 ft 456 kts 91°
2026-04-23 13:55 40.61274 112.40350 33010 ft 456 kts 91°
2026-04-23 13:56 40.61063 112.48703 33008 ft 456 kts 92°
2026-04-23 13:56 40.60592 112.57025 33002 ft 456 kts 93°
2026-04-23 13:57 40.60148 112.65360 33005 ft 456 kts 94°
2026-04-23 13:57 40.59634 112.73680 33000 ft 455 kts 97°
2026-04-23 13:58 40.58944 112.81905 33000 ft 455 kts 93°
2026-04-23 13:58 40.58409 112.90219 33002 ft 456 kts 95°
2026-04-23 13:59 40.57847 112.98524 33000 ft 455 kts 94°
2026-04-23 13:59 40.57301 113.06817 32998 ft 455 kts 95°
2026-04-23 14:00 40.56827 113.13697 32994 ft 454 kts 95°
2026-04-23 14:00 40.56174 113.23332 32990 ft 454 kts 95°
2026-04-23 14:01 40.55598 113.31609 32992 ft 454 kts 95°
2026-04-23 14:01 40.55021 113.39886 32997 ft 454 kts 95°
2026-04-23 14:02 40.54435 113.48161 32997 ft 454 kts 95°
2026-04-23 14:02 40.53846 113.56420 32991 ft 453 kts 95°
2026-04-23 14:03 40.53251 113.64669 32992 ft 453 kts 95°
2026-04-23 14:03 40.52655 113.72852 32988 ft 452 kts 95°
2026-04-23 14:04 40.52050 113.81082 32984 ft 451 kts 95°
2026-04-23 14:04 40.51441 113.89286 32987 ft 451 kts 95°
2026-04-23 14:05 40.50825 113.97491 32982 ft 450 kts 95°
2026-04-23 14:05 40.50453 114.05694 32986 ft 450 kts 93°
2026-04-23 14:06 40.50068 114.13847 32992 ft 450 kts 92°
2026-04-23 14:06 40.49740 114.22055 32991 ft 449 kts 92°
2026-04-23 14:07 40.49371 114.30258 32991 ft 449 kts 92°
2026-04-23 14:07 40.49015 114.38443 32748 ft 446 kts 92°
2026-04-23 14:07 40.48831 114.42536 32007 ft 448 kts 92°
2026-04-23 14:08 40.48645 114.46617 31410 ft 446 kts 92°
2026-04-23 14:08 40.48460 114.50678 30808 ft 445 kts 92°
2026-04-23 14:08 40.48275 114.54753 30181 ft 446 kts 92°
2026-04-23 14:08 40.48087 114.58827 29496 ft 448 kts 92°
2026-04-23 14:09 40.47897 114.62908 28840 ft 448 kts 92°
2026-04-23 14:09 40.47707 114.66969 28154 ft 451 kts 92°
2026-04-23 14:09 40.47512 114.71097 27441 ft 455 kts 92°
2026-04-23 14:09 40.47314 114.75259 26703 ft 457 kts 93°
2026-04-23 14:10 40.47114 114.79438 25934 ft 459 kts 93°
2026-04-23 14:10 40.46911 114.83637 25120 ft 461 kts 93°
2026-04-23 14:10 40.46705 114.87858 24279 ft 463 kts 93°
2026-04-23 14:10 40.46498 114.92090 23404 ft 465 kts 94°
2026-04-23 14:11 40.46288 114.96322 22487 ft 462 kts 93°
2026-04-23 14:11 40.46079 115.00511 21642 ft 457 kts 93°
2026-04-23 14:11 40.45871 115.04654 20799 ft 452 kts 93°
2026-04-23 14:11 40.45664 115.08766 19961 ft 448 kts 93°
2026-04-23 14:12 40.45459 115.12785 19148 ft 444 kts 93°
2026-04-23 14:12 40.45252 115.16827 18330 ft 440 kts 93°
2026-04-23 14:12 40.45047 115.20820 17479 ft 434 kts 93°
2026-04-23 14:12 40.44845 115.24698 16692 ft 408 kts 93°
2026-04-23 14:13 40.44659 115.28232 15983 ft 370 kts 93°
2026-04-23 14:13 40.44491 115.31430 15328 ft 341 kts 93°
2026-04-23 14:13 40.44333 115.34453 14772 ft 328 kts 93°
2026-04-23 14:13 40.44177 115.37400 14533 ft 318 kts 93°
2026-04-23 14:14 40.44023 115.40287 14430 ft 318 kts 93°
2026-04-23 14:14 40.43867 115.43204 14331 ft 322 kts 93°
2026-04-23 14:14 40.43708 115.46147 14233 ft 321 kts 93°
2026-04-23 14:14 40.43553 115.49021 14119 ft 315 kts 93°
2026-04-23 14:15 40.43382 115.51922 13842 ft 322 kts 97°
2026-04-23 14:15 40.42665 115.54642 13534 ft 314 kts 119°
2026-04-23 14:15 40.41636 115.57187 13255 ft 318 kts 118°
2026-04-23 14:15 40.40579 115.59739 12984 ft 317 kts 119°
2026-04-23 14:16 40.39518 115.62274 12709 ft 317 kts 119°
2026-04-23 14:16 40.38466 115.64809 12473 ft 315 kts 119°
2026-04-23 14:16 40.37437 115.67299 12177 ft 299 kts 119°
2026-04-23 14:16 40.36468 115.69635 11939 ft 292 kts 120°
2026-04-23 14:17 40.35227 115.71714 11705 ft 290 kts 146°
2026-04-23 14:17 40.33469 115.72863 11704 ft 280 kts 170°
2026-04-23 14:17 40.31554 115.73340 11713 ft 282 kts 170°
2026-04-23 14:17 40.29636 115.73910 11715 ft 283 kts 169°
2026-04-23 14:18 40.27711 115.74458 11712 ft 283 kts 171°
2026-04-23 14:18 40.25820 115.75157 11707 ft 284 kts 157°
2026-04-23 14:18 40.24021 115.76250 11714 ft 285 kts 160°
2026-04-23 14:18 40.22183 115.77217 11714 ft 285 kts 160°
2026-04-23 14:19 40.20360 115.78210 11791 ft 284 kts 159°
2026-04-23 14:19 40.18546 115.79250 11800 ft 285 kts 156°
2026-04-23 14:19 40.16913 115.80663 11803 ft 286 kts 144°
2026-04-23 14:19 40.15272 115.82147 11804 ft 287 kts 148°
2026-04-23 14:20 40.13611 115.83596 11804 ft 287 kts 147°
2026-04-23 14:20 40.11967 115.85074 11808 ft 287 kts 147°
2026-04-23 14:20 40.10398 115.86682 11800 ft 288 kts 134°
2026-04-23 14:20 40.09050 115.88617 11806 ft 288 kts 135°
2026-04-23 14:21 40.07659 115.90499 11795 ft 287 kts 129°
2026-04-23 14:21 40.06844 115.92853 11799 ft 287 kts 101°
2026-04-23 14:21 40.06904 115.95426 11807 ft 286 kts 72°
2026-04-23 14:21 40.07813 115.97681 11783 ft 283 kts 46°
2026-04-23 14:22 40.09301 115.99362 11550 ft 281 kts 36°
2026-04-23 14:22 40.10816 116.00911 11305 ft 279 kts 35°
2026-04-23 14:22 40.12343 116.02457 11078 ft 277 kts 36°
2026-04-23 14:22 40.13863 116.04012 10841 ft 276 kts 36°
2026-04-23 14:23 40.15375 116.05567 10622 ft 276 kts 36°
2026-04-23 14:23 40.16884 116.07117 10403 ft 275 kts 36°
2026-04-23 14:23 40.18391 116.08663 10187 ft 275 kts 36°
2026-04-23 14:23 40.19895 116.10207 9975 ft 274 kts 36°
2026-04-23 14:24 40.21396 116.11749 9750 ft 274 kts 36°
2026-04-23 14:24 40.22893 116.13289 9515 ft 273 kts 36°
2026-04-23 14:24 40.24389 116.14828 9295 ft 273 kts 36°
2026-04-23 14:24 40.25880 116.16363 9075 ft 272 kts 36°
2026-04-23 14:25 40.27347 116.17874 8861 ft 272 kts 37°
2026-04-23 14:25 40.28836 116.19408 8648 ft 272 kts 37°
2026-04-23 14:25 40.30319 116.20938 8428 ft 271 kts 37°
2026-04-23 14:25 40.31800 116.22467 8219 ft 271 kts 37°
2026-04-23 14:26 40.33280 116.23993 8009 ft 271 kts 37°
2026-04-23 14:26 40.34755 116.25518 7789 ft 270 kts 37°
2026-04-23 14:26 40.36229 116.27042 7588 ft 270 kts 37°
2026-04-23 14:26 40.37704 116.28567 7356 ft 270 kts 37°
2026-04-23 14:27 40.39137 116.30142 7147 ft 269 kts 47°
2026-04-23 14:27 40.39975 116.32304 6928 ft 268 kts 78°
2026-04-23 14:27 40.40155 116.34727 6739 ft 266 kts 88°
2026-04-23 14:27 40.40256 116.37142 6530 ft 265 kts 89°
2026-04-23 14:28 40.40352 116.39546 6320 ft 260 kts 89°
2026-04-23 14:28 40.40455 116.41873 6083 ft 251 kts 89°
2026-04-23 14:28 40.40554 116.44090 5923 ft 236 kts 89°
2026-04-23 14:28 40.40559 116.46214 5752 ft 230 kts 95°
2026-04-23 14:29 40.40576 116.48301 5569 ft 228 kts 90°
2026-04-23 14:29 40.40634 116.50356 5381 ft 227 kts 91°
2026-04-23 14:29 40.40656 116.52422 5211 ft 226 kts 92°
2026-04-23 14:29 40.40454 116.54426 4980 ft 220 kts 118°
2026-04-23 14:30 40.39538 116.55966 4803 ft 212 kts 146°
2026-04-23 14:30 40.38215 116.56623 4624 ft 198 kts 175°
2026-04-23 14:30 40.37330 116.56770 4562 ft 191 kts 175°
2026-04-23 14:30 40.36033 116.56992 4432 ft 184 kts 176°
2026-04-23 14:31 40.34774 116.57194 4293 ft 181 kts 176°
2026-04-23 14:31 40.33527 116.57392 4150 ft 179 kts 176°
2026-04-23 14:31 40.32291 116.57588 4000 ft 178 kts 176°
2026-04-23 14:31 40.31055 116.57783 3865 ft 178 kts 176°
2026-04-23 14:32 40.29836 116.57976 3739 ft 178 kts 176°
2026-04-23 14:32 40.28197 116.58236 3548 ft 179 kts 176°
2026-04-23 14:32 40.27357 116.58368 3454 ft 179 kts 176°
2026-04-23 14:32 40.26134 116.58562 3310 ft 179 kts 176°
2026-04-23 14:33 40.24909 116.58757 3175 ft 176 kts 177°
2026-04-23 14:33 40.23696 116.58949 3037 ft 175 kts 177°
2026-04-23 14:33 40.22484 116.59140 2871 ft 177 kts 177°
2026-04-23 14:33 40.21266 116.59332 2630 ft 175 kts 177°
2026-04-23 14:34 40.20064 116.59523 2385 ft 173 kts 177°
2026-04-23 14:34 40.18870 116.59711 2143 ft 173 kts 177°
2026-04-23 14:34 40.17691 116.59899 1895 ft 168 kts 177°
2026-04-23 14:34 40.16588 116.60076 1663 ft 151 kts 177°
2026-04-23 14:35 40.15596 116.60238 1446 ft 138 kts 177°
2026-04-23 14:35 40.14648 116.60389 1253 ft 136 kts 177°
2026-04-23 14:35 40.13703 116.60532 1062 ft 137 kts 176°
2026-04-23 14:35 40.12742 116.60683 853 ft 140 kts 174°
2026-04-23 14:36 40.11774 116.60833 682 ft 142 kts 174°
2026-04-23 14:36 40.10791 116.61001 472 ft 140 kts 172°
2026-04-23 14:36 40.09837 116.61141 272 ft 141 kts 173°
2026-04-23 14:36 40.08881 116.61291 136 ft 129 kts 170°
2026-04-23 14:37 40.08201 116.61410 127 ft 55 kts 172°
2026-04-23 14:37 40.07894 116.61455 124 ft 41 kts 173°
2026-04-23 14:37 40.07705 116.61392 123 ft 24 kts 207°
2026-04-23 14:37 40.07561 116.61295 124 ft 23 kts 204°
2026-04-23 14:38 40.07417 116.61285 126 ft 20 kts 172°
2026-04-23 14:38 40.07275 116.61312 127 ft 21 kts 172°
2026-04-23 14:38 40.07130 116.61336 126 ft 21 kts 173°
2026-04-23 14:38 40.06976 116.61360 126 ft 24 kts 173°
2026-04-23 14:39 40.06814 116.61386 127 ft 24 kts 173°
2026-04-23 14:39 40.06646 116.61412 126 ft 24 kts 173°
2026-04-23 14:39 40.06475 116.61438 126 ft 22 kts 173°
2026-04-23 14:39 40.06402 116.61425 126 ft 6 kts 223°
2026-04-23 14:40 40.06372 116.61341 127 ft 14 kts 254°
2026-04-23 14:40 40.06354 116.61215 128 ft 15 kts 264°
2026-04-23 14:40 40.06365 116.61091 124 ft 11 kts 319°
2026-04-23 14:40 40.06438 116.61056 127 ft 12 kts 352°
2026-04-23 14:41 40.06512 116.61020 125 ft 10 kts 304°
2026-04-23 14:41 40.06513 116.60976 126 ft 5 kts 262°
2026-04-23 14:41 40.06507 116.60921 125 ft 7 kts 262°
2026-04-23 14:41 40.06507 116.60915 124 ft 0 kts 262°